contact:dominique.lefevre@mio.osupytheas.fr, maurice.libes@osupytheas.fr, didier.mallarino@osupytheas.fr
Project:EMSO http://www.emso-fr.org/EMSO-France
Depth: 2436.0 m
Title:EMSO Ligure Ouest : Data MII capteur MICROCAT
DateTime_Computer,Latitude,Longitude,Temperature,Conductivity,Pressure,DateTime_Instrument
DateTime_Computer,Latitude,Longitude,degC,S m-1,dbar,DateTime_Instrument
2020-01-12T00:00:29Z,42.805,6.029,13.2980,4.59975,2469.937,2020-1-12T02:01:01Z
2020-01-12T00:03:32Z,42.805,6.029,13.2976,4.59973,2469.876,2020-1-12T02:04:04Z
2020-01-12T00:06:35Z,42.805,6.029,13.2981,4.59978,2469.914,2020-1-12T02:07:08Z
2020-01-12T00:09:39Z,42.805,6.029,13.2979,4.59976,2469.876,2020-1-12T02:10:11Z
2020-01-12T00:12:42Z,42.805,6.029,13.2977,4.59980,2469.876,2020-1-12T02:13:14Z
2020-01-12T00:15:45Z,42.805,6.029,13.2983,4.59979,2469.876,2020-1-12T02:16:17Z
2020-01-12T00:18:48Z,42.805,6.029,13.2990,4.59982,2469.876,2020-1-12T02:19:20Z
2020-01-12T00:21:52Z,42.805,6.029,13.2979,4.59981,2469.914,2020-1-12T02:22:24Z
2020-01-12T00:24:55Z,42.805,6.029,13.2981,4.60001,2469.867,2020-1-12T02:25:27Z
2020-01-12T00:27:58Z,42.805,6.029,13.2979,4.59976,2469.853,2020-1-12T02:28:30Z
2020-01-12T00:31:01Z,42.805,6.029,13.2990,4.59979,2469.89,2020-1-12T02:31:34Z
2020-01-12T00:34:05Z,42.805,6.029,13.2974,4.59996,2469.867,2020-1-12T02:34:37Z
2020-01-12T00:37:08Z,42.805,6.029,13.2979,4.59978,2469.853,2020-1-12T02:37:40Z
2020-01-12T00:40:11Z,42.805,6.029,13.2983,4.59971,2469.914,2020-1-12T02:40:43Z
2020-01-12T00:43:14Z,42.805,6.029,13.2983,4.59976,2469.89,2020-1-12T02:43:47Z
2020-01-12T00:46:18Z,42.805,6.029,13.2978,4.59988,2469.886,2020-1-12T02:46:50Z
2020-01-12T00:49:21Z,42.805,6.029,13.2980,4.59978,2469.876,2020-1-12T02:49:53Z
2020-01-12T00:52:24Z,42.805,6.029,13.2982,4.59976,2469.853,2020-1-12T02:52:57Z
2020-01-12T00:55:28Z,42.805,6.029,13.2982,4.59975,2469.867,2020-1-12T02:56:00Z
2020-01-12T00:58:31Z,42.805,6.029,13.2981,4.59981,2469.853,2020-1-12T02:59:03Z
2020-01-12T01:01:34Z,42.805,6.029,13.2990,4.59986,2469.853,2020-1-12T03:02:07Z
2020-01-12T01:04:38Z,42.805,6.029,13.2982,4.59983,2469.876,2020-1-12T03:05:10Z
2020-01-12T01:07:41Z,42.805,6.029,13.2993,4.59983,2469.867,2020-1-12T03:08:13Z
2020-01-12T01:10:44Z,42.805,6.029,13.2989,4.59983,2469.83,2020-1-12T03:11:16Z
2020-01-12T01:13:47Z,42.805,6.029,13.2988,4.59997,2469.89,2020-1-12T03:14:19Z
2020-01-12T01:16:51Z,42.805,6.029,13.3002,4.59992,2469.867,2020-1-12T03:17:23Z
2020-01-12T01:19:54Z,42.805,6.029,13.2991,4.60002,2469.844,2020-1-12T03:20:26Z
2020-01-12T01:22:57Z,42.805,6.029,13.2988,4.59996,2469.876,2020-1-12T03:23:29Z
2020-01-12T01:26:00Z,42.805,6.029,13.2985,4.59978,2469.876,2020-1-12T03:26:32Z
2020-01-12T01:29:03Z,42.805,6.029,13.2985,4.59978,2469.89,2020-1-12T03:29:36Z
2020-01-12T01:32:07Z,42.805,6.029,13.2995,4.59988,2469.867,2020-1-12T03:32:39Z
2020-01-12T01:35:10Z,42.805,6.029,13.2986,4.59979,2469.853,2020-1-12T03:35:42Z
2020-01-12T01:38:13Z,42.805,6.029,13.2981,4.59982,2469.876,2020-1-12T03:38:46Z
2020-01-12T01:41:17Z,42.805,6.029,13.2996,4.59994,2469.853,2020-1-12T03:41:49Z
2020-01-12T01:44:20Z,42.805,6.029,13.2976,4.59983,2469.83,2020-1-12T03:44:52Z
2020-01-12T01:47:23Z,42.805,6.029,13.2982,4.59990,2469.867,2020-1-12T03:47:55Z
2020-01-12T01:50:26Z,42.805,6.029,13.2980,4.59978,2469.867,2020-1-12T03:50:59Z
2020-01-12T01:53:30Z,42.805,6.029,13.2985,4.59984,2469.853,2020-1-12T03:54:02Z
2020-01-12T01:56:33Z,42.805,6.029,13.2985,4.59986,2469.876,2020-1-12T03:57:05Z
2020-01-12T01:59:36Z,42.805,6.029,13.2989,4.59981,2469.876,2020-1-12T04:00:08Z
2020-01-12T02:02:39Z,42.805,6.029,13.3002,4.60002,2469.83,2020-1-12T04:03:12Z
2020-01-12T02:05:43Z,42.805,6.029,13.2990,4.59979,2469.844,2020-1-12T04:06:15Z
2020-01-12T02:08:46Z,42.805,6.029,13.2986,4.59989,2469.89,2020-1-12T04:09:18Z
2020-01-12T02:11:49Z,42.805,6.029,13.2990,4.59983,2469.867,2020-1-12T04:12:21Z
2020-01-12T02:14:52Z,42.805,6.029,13.2993,4.59999,2469.844,2020-1-12T04:15:25Z
2020-01-12T02:17:55Z,42.805,6.029,13.2991,4.60006,2469.853,2020-1-12T04:18:28Z
2020-01-12T02:20:59Z,42.805,6.029,13.2997,4.59997,2469.853,2020-1-12T04:21:31Z
2020-01-12T02:24:02Z,42.805,6.029,13.2995,4.59994,2469.867,2020-1-12T04:24:34Z
2020-01-12T02:27:05Z,42.805,6.029,13.2980,4.59991,2469.844,2020-1-12T04:27:38Z
2020-01-12T02:30:09Z,42.805,6.029,13.3010,4.59992,2469.876,2020-1-12T04:30:41Z
2020-01-12T02:33:12Z,42.805,6.029,13.2990,4.60005,2469.867,2020-1-12T04:33:44Z
2020-01-12T02:36:15Z,42.805,6.029,13.2993,4.59996,2469.821,2020-1-12T04:36:47Z
2020-01-12T02:39:18Z,42.805,6.029,13.2995,4.59986,2469.876,2020-1-12T04:39:51Z
2020-01-12T02:42:22Z,42.805,6.029,13.2998,4.59990,2469.867,2020-1-12T04:42:54Z
2020-01-12T02:45:25Z,42.805,6.029,13.2993,4.59997,2469.876,2020-1-12T04:45:57Z
2020-01-12T02:48:29Z,42.805,6.029,13.2998,4.59993,2469.876,2020-1-12T04:49:01Z
2020-01-12T02:51:32Z,42.805,6.029,13.2991,4.59981,2469.867,2020-1-12T04:52:04Z
2020-01-12T02:54:35Z,42.805,6.029,13.3001,4.59984,2469.867,2020-1-12T04:55:07Z
2020-01-12T02:57:39Z,42.805,6.029,13.3002,4.59986,2469.89,2020-1-12T04:58:11Z
2020-01-12T03:00:42Z,42.805,6.029,13.2998,4.59991,2469.867,2020-1-12T05:01:14Z
2020-01-12T03:03:45Z,42.805,6.029,13.2992,4.59985,2469.867,2020-1-12T05:04:17Z
2020-01-12T03:06:48Z,42.805,6.029,13.2990,4.59986,2469.89,2020-1-12T05:07:20Z
2020-01-12T03:09:52Z,42.805,6.029,13.3021,4.60009,2469.89,2020-1-12T05:10:24Z
2020-01-12T03:12:55Z,42.805,6.029,13.3015,4.59993,2469.853,2020-1-12T05:13:27Z
2020-01-12T03:15:58Z,42.805,6.029,13.3002,4.59989,2469.876,2020-1-12T05:16:30Z
2020-01-12T03:19:01Z,42.805,6.029,13.2989,4.59986,2469.876,2020-1-12T05:19:34Z
2020-01-12T03:22:05Z,42.805,6.029,13.2986,4.59991,2469.876,2020-1-12T05:22:37Z
2020-01-12T03:25:08Z,42.805,6.029,13.3021,4.59991,2469.853,2020-1-12T05:25:40Z
2020-01-12T03:28:11Z,42.805,6.029,13.3004,4.60009,2469.89,2020-1-12T05:28:43Z
2020-01-12T03:31:14Z,42.805,6.029,13.3015,4.59996,2469.914,2020-1-12T05:31:47Z
2020-01-12T03:34:18Z,42.805,6.029,13.2990,4.60002,2469.867,2020-1-12T05:34:50Z
2020-01-12T03:37:21Z,42.805,6.029,13.3021,4.59988,2469.853,2020-1-12T05:37:53Z
2020-01-12T03:40:24Z,42.805,6.029,13.3017,4.59995,2469.89,2020-1-12T05:40:56Z
2020-01-12T03:43:27Z,42.805,6.029,13.2992,4.60003,2469.863,2020-1-12T05:44:00Z
2020-01-12T03:46:31Z,42.805,6.029,13.3001,4.60032,2469.853,2020-1-12T05:47:03Z
2020-01-12T03:49:34Z,42.805,6.029,13.2989,4.59991,2469.853,2020-1-12T05:50:06Z
2020-01-12T03:52:37Z,42.805,6.029,13.2993,4.60001,2469.876,2020-1-12T05:53:09Z
2020-01-12T03:55:41Z,42.805,6.029,13.3011,4.59988,2469.876,2020-1-12T05:56:13Z
2020-01-12T03:58:44Z,42.805,6.029,13.2996,4.59985,2469.914,2020-1-12T05:59:16Z
2020-01-12T04:01:47Z,42.805,6.029,13.2991,4.59995,2469.914,2020-1-12T06:02:20Z
2020-01-12T04:04:51Z,42.805,6.029,13.3000,4.59993,2469.9,2020-1-12T06:05:23Z
2020-01-12T04:07:54Z,42.805,6.029,13.2989,4.59996,2469.914,2020-1-12T06:08:26Z
2020-01-12T04:10:57Z,42.805,6.029,13.3019,4.59994,2469.914,2020-1-12T06:11:29Z
2020-01-12T04:14:00Z,42.805,6.029,13.2998,4.60000,2469.914,2020-1-12T06:14:33Z
2020-01-12T04:17:04Z,42.805,6.029,13.3007,4.60007,2469.914,2020-1-12T06:17:36Z
2020-01-12T04:20:07Z,42.805,6.029,13.2998,4.60001,2469.923,2020-1-12T06:20:39Z
2020-01-12T04:23:10Z,42.805,6.029,13.2996,4.59990,2469.923,2020-1-12T06:23:43Z
2020-01-12T04:26:14Z,42.805,6.029,13.2975,4.59996,2469.937,2020-1-12T06:26:46Z
2020-01-12T04:29:17Z,42.805,6.029,13.3026,4.60012,2469.947,2020-1-12T06:29:49Z
2020-01-12T04:32:20Z,42.805,6.029,13.2984,4.59990,2469.947,2020-1-12T06:32:52Z
2020-01-12T04:35:23Z,42.805,6.029,13.3020,4.60003,2469.937,2020-1-12T06:35:56Z
2020-01-12T04:38:27Z,42.805,6.029,13.3010,4.59991,2469.947,2020-1-12T06:38:59Z
2020-01-12T04:41:30Z,42.805,6.029,13.3030,4.60007,2469.984,2020-1-12T06:42:02Z
2020-01-12T04:44:33Z,42.805,6.029,13.3011,4.60000,2469.97,2020-1-12T06:45:05Z
2020-01-12T04:47:36Z,42.805,6.029,13.2986,4.59991,2469.9,2020-1-12T06:48:09Z
2020-01-12T04:50:40Z,42.805,6.029,13.2995,4.59999,2469.947,2020-1-12T06:51:12Z
2020-01-12T04:53:43Z,42.805,6.029,13.3000,4.60014,2469.96,2020-1-12T06:54:15Z
2020-01-12T04:56:46Z,42.805,6.029,13.2986,4.60007,2469.947,2020-1-12T06:57:18Z
2020-01-12T04:59:50Z,42.805,6.029,13.2976,4.59993,2469.984,2020-1-12T07:00:22Z
2020-01-12T05:02:53Z,42.805,6.029,13.3003,4.59996,2469.947,2020-1-12T07:03:25Z
2020-01-12T05:05:56Z,42.805,6.029,13.3004,4.60005,2469.97,2020-1-12T07:06:28Z
2020-01-12T05:08:59Z,42.805,6.029,13.3000,4.60014,2469.947,2020-1-12T07:09:31Z
2020-01-12T05:12:03Z,42.805,6.029,13.2986,4.60035,2469.984,2020-1-12T07:12:35Z
2020-01-12T05:15:06Z,42.805,6.029,13.2997,4.60014,2469.993,2020-1-12T07:15:38Z
2020-01-12T05:18:09Z,42.805,6.029,13.3009,4.59999,2469.993,2020-1-12T07:18:41Z
2020-01-12T05:21:12Z,42.805,6.029,13.3009,4.60014,2469.984,2020-1-12T07:21:45Z
2020-01-12T05:24:16Z,42.805,6.029,13.3003,4.60013,2470.007,2020-1-12T07:24:48Z
2020-01-12T05:27:19Z,42.805,6.029,13.3014,4.60016,2470.007,2020-1-12T07:27:51Z
2020-01-12T05:30:23Z,42.805,6.029,13.2985,4.60002,2470.017,2020-1-12T07:30:55Z
2020-01-12T05:33:26Z,42.805,6.029,13.3000,4.60000,2470.04,2020-1-12T07:33:58Z
2020-01-12T05:36:29Z,42.805,6.029,13.2969,4.59996,2470.017,2020-1-12T07:37:01Z
2020-01-12T05:39:32Z,42.805,6.029,13.3041,4.59995,2470.017,2020-1-12T07:40:04Z
2020-01-12T05:42:36Z,42.805,6.029,13.2982,4.60001,2470.017,2020-1-12T07:43:08Z
2020-01-12T05:45:39Z,42.805,6.029,13.3019,4.60009,2470.017,2020-1-12T07:46:11Z
2020-01-12T05:48:42Z,42.805,6.029,13.2980,4.60003,2470.007,2020-1-12T07:49:14Z
2020-01-12T05:51:45Z,42.805,6.029,13.3016,4.60006,2470.053,2020-1-12T07:52:18Z
2020-01-12T05:54:49Z,42.805,6.029,13.3005,4.60010,2470.03,2020-1-12T07:55:21Z
2020-01-12T05:57:52Z,42.805,6.029,13.3010,4.59994,2470.053,2020-1-12T07:58:24Z
2020-01-12T06:00:55Z,42.805,6.029,13.2991,4.60001,2470.017,2020-1-12T08:01:27Z
2020-01-12T06:03:58Z,42.805,6.029,13.3038,4.60008,2470.063,2020-1-12T08:04:30Z
2020-01-12T06:07:01Z,42.805,6.029,13.3000,4.59996,2470.063,2020-1-12T08:07:34Z
2020-01-12T06:10:05Z,42.805,6.029,13.2998,4.59999,2470.063,2020-1-12T08:10:37Z
2020-01-12T06:13:08Z,42.805,6.029,13.2989,4.60006,2470.077,2020-1-12T08:13:40Z
2020-01-12T06:16:11Z,42.805,6.029,13.3004,4.60001,2470.077,2020-1-12T08:16:43Z
2020-01-12T06:19:14Z,42.805,6.029,13.3011,4.60022,2470.063,2020-1-12T08:19:47Z
2020-01-12T06:22:18Z,42.805,6.029,13.2957,4.60017,2470.087,2020-1-12T08:22:50Z
2020-01-12T06:25:21Z,42.805,6.029,13.2970,4.59992,2470.1,2020-1-12T08:25:53Z
2020-01-12T06:28:24Z,42.805,6.029,13.2975,4.60004,2470.096,2020-1-12T08:28:57Z
2020-01-12T06:31:28Z,42.805,6.029,13.3001,4.60014,2470.077,2020-1-12T08:32:00Z
2020-01-12T06:34:31Z,42.805,6.029,13.3019,4.59992,2470.077,2020-1-12T08:35:03Z
2020-01-12T06:37:34Z,42.805,6.029,13.3011,4.60000,2470.063,2020-1-12T08:38:06Z
2020-01-12T06:40:37Z,42.805,6.029,13.3009,4.60020,2470.147,2020-1-12T08:41:10Z
2020-01-12T06:43:40Z,42.805,6.029,13.3020,4.60014,2470.077,2020-1-12T08:44:13Z
2020-01-12T06:46:44Z,42.805,6.029,13.2964,4.60014,2470.087,2020-1-12T08:47:16Z
2020-01-12T06:49:47Z,42.805,6.029,13.2979,4.60011,2470.124,2020-1-12T08:50:19Z
2020-01-12T06:52:50Z,42.805,6.029,13.2962,4.60006,2470.11,2020-1-12T08:53:22Z
2020-01-12T06:55:54Z,42.805,6.029,13.3034,4.60021,2470.124,2020-1-12T08:56:26Z
2020-01-12T06:58:57Z,42.805,6.029,13.3014,4.59999,2470.133,2020-1-12T08:59:29Z
2020-01-12T07:02:00Z,42.805,6.029,13.2988,4.60014,2470.1,2020-1-12T09:02:32Z
2020-01-12T07:05:03Z,42.805,6.029,13.3050,4.60016,2470.124,2020-1-12T09:05:36Z
2020-01-12T07:08:07Z,42.805,6.029,13.3018,4.60009,2470.11,2020-1-12T09:08:39Z
2020-01-12T07:11:10Z,42.805,6.029,13.2988,4.59999,2470.133,2020-1-12T09:11:42Z
2020-01-12T07:14:13Z,42.805,6.029,13.2967,4.60020,2470.133,2020-1-12T09:14:45Z
2020-01-12T07:17:16Z,42.805,6.029,13.3006,4.60025,2470.147,2020-1-12T09:17:49Z
2020-01-12T07:20:20Z,42.805,6.029,13.2964,4.60042,2470.11,2020-1-12T09:20:52Z
2020-01-12T07:23:23Z,42.805,6.029,13.2990,4.60031,2470.171,2020-1-12T09:23:55Z
2020-01-12T07:26:26Z,42.805,6.029,13.2968,4.60039,2470.147,2020-1-12T09:26:59Z
2020-01-12T07:29:30Z,42.805,6.029,13.3017,4.60028,2470.133,2020-1-12T09:30:02Z
2020-01-12T07:32:33Z,42.805,6.029,13.3015,4.59993,2470.156,2020-1-12T09:33:05Z
2020-01-12T07:35:36Z,42.805,6.029,13.3023,4.60039,2470.133,2020-1-12T09:36:08Z
2020-01-12T07:38:39Z,42.805,6.029,13.3046,4.60005,2470.156,2020-1-12T09:39:12Z
2020-01-12T07:41:43Z,42.805,6.029,13.3049,4.59996,2470.124,2020-1-12T09:42:15Z
2020-01-12T07:44:46Z,42.805,6.029,13.3042,4.59998,2470.133,2020-1-12T09:45:18Z
2020-01-12T07:47:49Z,42.805,6.029,13.3042,4.59994,2470.147,2020-1-12T09:48:21Z
2020-01-12T07:50:52Z,42.805,6.029,13.3021,4.59996,2470.124,2020-1-12T09:51:25Z
2020-01-12T07:53:56Z,42.805,6.029,13.3021,4.59996,2470.171,2020-1-12T09:54:28Z
2020-01-12T07:56:59Z,42.805,6.029,13.3015,4.60007,2470.18,2020-1-12T09:57:31Z
2020-01-12T08:00:02Z,42.805,6.029,13.3040,4.60005,2470.156,2020-1-12T10:00:34Z
2020-01-12T08:03:05Z,42.805,6.029,13.3056,4.60004,2470.133,2020-1-12T10:03:37Z
2020-01-12T08:06:08Z,42.805,6.029,13.3049,4.60003,2470.147,2020-1-12T10:06:41Z
2020-01-12T08:09:12Z,42.805,6.029,13.3041,4.60003,2470.147,2020-1-12T10:09:44Z
2020-01-12T08:12:15Z,42.805,6.029,13.3035,4.59994,2470.171,2020-1-12T10:12:47Z
2020-01-12T08:15:18Z,42.805,6.029,13.3040,4.59998,2470.133,2020-1-12T10:15:50Z
2020-01-12T08:18:21Z,42.805,6.029,13.3061,4.60005,2470.156,2020-1-12T10:18:54Z
2020-01-12T08:21:25Z,42.805,6.029,13.3048,4.60004,2470.156,2020-1-12T10:21:57Z
2020-01-12T08:24:28Z,42.805,6.029,13.3012,4.60002,2470.171,2020-1-12T10:25:00Z
2020-01-12T08:27:31Z,42.805,6.029,13.3035,4.60011,2470.171,2020-1-12T10:28:03Z
2020-01-12T08:30:34Z,42.805,6.029,13.3075,4.59999,2470.171,2020-1-12T10:31:07Z
2020-01-12T08:33:38Z,42.805,6.029,13.3061,4.60022,2470.11,2020-1-12T10:34:10Z
2020-01-12T08:36:41Z,42.805,6.029,13.3044,4.59991,2470.194,2020-1-12T10:37:13Z
2020-01-12T08:39:44Z,42.805,6.029,13.3038,4.60020,2470.124,2020-1-12T10:40:16Z
2020-01-12T08:42:47Z,42.805,6.029,13.3021,4.59998,2470.156,2020-1-12T10:43:20Z
2020-01-12T08:45:51Z,42.805,6.029,13.3013,4.59995,2470.171,2020-1-12T10:46:23Z
2020-01-12T08:48:54Z,42.805,6.029,13.3048,4.59985,2470.133,2020-1-12T10:49:26Z
2020-01-12T08:51:57Z,42.805,6.029,13.3019,4.59982,2470.147,2020-1-12T10:52:29Z
2020-01-12T08:55:00Z,42.805,6.029,13.3054,4.59991,2470.171,2020-1-12T10:55:33Z
2020-01-12T08:58:04Z,42.805,6.029,13.3020,4.60002,2470.156,2020-1-12T10:58:36Z
2020-01-12T09:01:07Z,42.805,6.029,13.3026,4.59986,2470.171,2020-1-12T11:01:39Z
2020-01-12T09:04:10Z,42.805,6.029,13.3053,4.59985,2470.18,2020-1-12T11:04:42Z
2020-01-12T09:07:13Z,42.805,6.029,13.3011,4.59979,2470.171,2020-1-12T11:07:46Z
2020-01-12T09:10:17Z,42.805,6.029,13.3009,4.59991,2470.171,2020-1-12T11:10:49Z
2020-01-12T09:13:20Z,42.805,6.029,13.2990,4.60001,2470.171,2020-1-12T11:13:52Z
2020-01-12T09:16:23Z,42.805,6.029,13.3031,4.60021,2470.147,2020-1-12T11:16:55Z
2020-01-12T09:19:26Z,42.805,6.029,13.3053,4.60006,2470.194,2020-1-12T11:19:59Z
2020-01-12T09:22:30Z,42.805,6.029,13.3035,4.59987,2470.124,2020-1-12T11:23:02Z
2020-01-12T09:25:33Z,42.805,6.029,13.3027,4.59999,2470.147,2020-1-12T11:26:05Z
2020-01-12T09:28:36Z,42.805,6.029,13.3016,4.60002,2470.171,2020-1-12T11:29:08Z
2020-01-12T09:31:39Z,42.805,6.029,13.3041,4.60018,2470.11,2020-1-12T11:32:12Z
2020-01-12T09:34:43Z,42.805,6.029,13.3044,4.60003,2470.18,2020-1-12T11:35:15Z
2020-01-12T09:37:46Z,42.805,6.029,13.3050,4.60012,2470.147,2020-1-12T11:38:18Z
2020-01-12T09:40:49Z,42.805,6.029,13.3033,4.60008,2470.18,2020-1-12T11:41:21Z
2020-01-12T09:43:52Z,42.805,6.029,13.3031,4.60024,2470.171,2020-1-12T11:44:25Z
2020-01-12T09:46:56Z,42.805,6.029,13.3054,4.60032,2470.147,2020-1-12T11:47:28Z
2020-01-12T09:49:59Z,42.805,6.029,13.3058,4.60002,2470.147,2020-1-12T11:50:31Z
2020-01-12T09:53:02Z,42.805,6.029,13.3028,4.60003,2470.171,2020-1-12T11:53:35Z
2020-01-12T09:56:06Z,42.805,6.029,13.3041,4.60042,2470.171,2020-1-12T11:56:38Z
2020-01-12T09:59:09Z,42.805,6.029,13.3032,4.60031,2470.156,2020-1-12T11:59:41Z
2020-01-12T10:02:12Z,42.805,6.029,13.3042,4.60037,2470.133,2020-1-12T12:02:44Z
2020-01-12T10:05:15Z,42.805,6.029,13.3039,4.60016,2470.133,2020-1-12T12:05:48Z
2020-01-12T10:08:19Z,42.805,6.029,13.3040,4.60034,2470.171,2020-1-12T12:08:51Z
2020-01-12T10:11:22Z,42.805,6.029,13.3025,4.60029,2470.156,2020-1-12T12:11:54Z
2020-01-12T10:14:25Z,42.805,6.029,13.3025,4.59990,2470.147,2020-1-12T12:14:57Z
2020-01-12T10:17:28Z,42.805,6.029,13.2986,4.59990,2470.156,2020-1-12T12:18:01Z
2020-01-12T10:20:32Z,42.805,6.029,13.2991,4.60026,2470.147,2020-1-12T12:21:04Z
2020-01-12T10:23:35Z,42.805,6.029,13.2990,4.60024,2470.171,2020-1-12T12:24:07Z
2020-01-12T10:26:38Z,42.805,6.029,13.3007,4.60011,2470.171,2020-1-12T12:27:10Z
2020-01-12T10:29:41Z,42.805,6.029,13.3013,4.60001,2470.133,2020-1-12T12:30:14Z
2020-01-12T10:32:44Z,42.805,6.029,13.3013,4.60014,2470.11,2020-1-12T12:33:17Z
2020-01-12T10:35:48Z,42.805,6.029,13.2996,4.60005,2470.124,2020-1-12T12:36:20Z
2020-01-12T10:38:51Z,42.805,6.029,13.3003,4.59999,2470.161,2020-1-12T12:39:23Z
2020-01-12T10:41:55Z,42.805,6.029,13.3004,4.59981,2470.124,2020-1-12T12:42:27Z
2020-01-12T10:44:58Z,42.805,6.029,13.2989,4.60009,2470.11,2020-1-12T12:45:30Z
2020-01-12T10:48:01Z,42.805,6.029,13.2988,4.60005,2470.133,2020-1-12T12:48:33Z
2020-01-12T10:51:04Z,42.805,6.029,13.3037,4.59997,2470.124,2020-1-12T12:51:36Z
2020-01-12T10:54:07Z,42.805,6.029,13.2998,4.59999,2470.124,2020-1-12T12:54:40Z
2020-01-12T10:57:11Z,42.805,6.029,13.2999,4.59985,2470.133,2020-1-12T12:57:43Z
2020-01-12T11:00:14Z,42.805,6.029,13.3006,4.59994,2470.124,2020-1-12T13:00:46Z
2020-01-12T11:03:17Z,42.805,6.029,13.3006,4.59986,2470.124,2020-1-12T13:03:50Z
2020-01-12T11:06:21Z,42.805,6.029,13.3043,4.60001,2470.124,2020-1-12T13:06:53Z
2020-01-12T11:09:24Z,42.805,6.029,13.3034,4.59994,2470.1,2020-1-12T13:09:56Z
2020-01-12T11:12:27Z,42.805,6.029,13.3009,4.60001,2470.1,2020-1-12T13:12:59Z
2020-01-12T11:15:30Z,42.805,6.029,13.3013,4.59985,2470.124,2020-1-12T13:16:03Z
2020-01-12T11:18:34Z,42.805,6.029,13.3000,4.60014,2470.053,2020-1-12T13:19:06Z
2020-01-12T11:21:37Z,42.805,6.029,13.3002,4.60006,2470.087,2020-1-12T13:22:09Z
2020-01-12T11:24:40Z,42.805,6.029,13.3001,4.60019,2470.077,2020-1-12T13:25:12Z
2020-01-12T11:27:44Z,42.805,6.029,13.2991,4.60032,2470.124,2020-1-12T13:28:16Z
2020-01-12T11:30:47Z,42.805,6.029,13.3015,4.59985,2470.077,2020-1-12T13:31:19Z
2020-01-12T11:33:50Z,42.805,6.029,13.2984,4.59999,2470.077,2020-1-12T13:34:23Z
2020-01-12T11:36:53Z,42.805,6.029,13.2982,4.60001,2470.087,2020-1-12T13:37:26Z
2020-01-12T11:39:57Z,42.805,6.029,13.2992,4.60009,2470.1,2020-1-12T13:40:29Z
2020-01-12T11:43:00Z,42.805,6.029,13.3003,4.60014,2470.1,2020-1-12T13:43:32Z
2020-01-12T11:46:03Z,42.805,6.029,13.3007,4.60039,2470.087,2020-1-12T13:46:35Z
2020-01-12T11:49:06Z,42.805,6.029,13.3011,4.60019,2470.04,2020-1-12T13:49:39Z
2020-01-12T11:52:10Z,42.805,6.029,13.3003,4.60006,2470.053,2020-1-12T13:52:42Z
2020-01-12T11:55:13Z,42.805,6.029,13.3006,4.60010,2470.053,2020-1-12T13:55:45Z
2020-01-12T11:58:16Z,42.805,6.029,13.2990,4.60024,2470.063,2020-1-12T13:58:48Z
2020-01-12T12:01:19Z,42.805,6.029,13.2977,4.60023,2470.063,2020-1-12T14:01:52Z
2020-01-12T12:04:23Z,42.805,6.029,13.2990,4.59991,2470.03,2020-1-12T14:04:55Z
2020-01-12T12:07:26Z,42.805,6.029,13.2996,4.59996,2470.04,2020-1-12T14:07:58Z
2020-01-12T12:10:29Z,42.805,6.029,13.2987,4.60039,2470.1,2020-1-12T14:11:01Z
2020-01-12T12:13:32Z,42.805,6.029,13.3011,4.60009,2470.04,2020-1-12T14:14:05Z
2020-01-12T12:16:36Z,42.805,6.029,13.3039,4.60023,2470.053,2020-1-12T14:17:08Z
2020-01-12T12:19:39Z,42.805,6.029,13.3021,4.60034,2470.077,2020-1-12T14:20:11Z
2020-01-12T12:22:42Z,42.805,6.029,13.3019,4.60026,2470.077,2020-1-12T14:23:14Z
2020-01-12T12:25:45Z,42.805,6.029,13.3037,4.60021,2470.063,2020-1-12T14:26:18Z
2020-01-12T12:28:49Z,42.805,6.029,13.3010,4.60022,2470.063,2020-1-12T14:29:21Z
2020-01-12T12:31:52Z,42.805,6.029,13.3058,4.59984,2470.03,2020-1-12T14:32:24Z
2020-01-12T12:34:55Z,42.805,6.029,13.3036,4.59997,2470.03,2020-1-12T14:35:27Z
2020-01-12T12:37:58Z,42.805,6.029,13.3015,4.60011,2470.053,2020-1-12T14:38:31Z
2020-01-12T12:41:02Z,42.805,6.029,13.3002,4.60008,2470.053,2020-1-12T14:41:34Z
2020-01-12T12:44:05Z,42.805,6.029,13.3024,4.59988,2470.03,2020-1-12T14:44:37Z
2020-01-12T12:47:08Z,42.805,6.029,13.2996,4.60003,2470.03,2020-1-12T14:47:40Z
2020-01-12T12:50:11Z,42.805,6.029,13.3030,4.60060,2469.993,2020-1-12T14:50:44Z
2020-01-12T12:53:15Z,42.805,6.029,13.2987,4.60029,2470.053,2020-1-12T14:53:47Z
2020-01-12T12:56:18Z,42.805,6.029,13.3015,4.60006,2470.007,2020-1-12T14:56:50Z
2020-01-12T12:59:21Z,42.805,6.029,13.2992,4.60041,2469.993,2020-1-12T14:59:53Z
2020-01-12T13:02:25Z,42.805,6.029,13.3004,4.60021,2469.993,2020-1-12T15:02:57Z
2020-01-12T13:05:28Z,42.805,6.029,13.3036,4.60002,2470.053,2020-1-12T15:06:00Z
2020-01-12T13:08:31Z,42.805,6.029,13.3018,4.60016,2470.053,2020-1-12T15:09:03Z
2020-01-12T13:11:34Z,42.805,6.029,13.3028,4.60019,2470.03,2020-1-12T15:12:07Z
2020-01-12T13:14:38Z,42.805,6.029,13.3032,4.60031,2469.993,2020-1-12T15:15:10Z
2020-01-12T13:17:41Z,42.805,6.029,13.2992,4.60026,2469.993,2020-1-12T15:18:13Z
2020-01-12T13:20:44Z,42.805,6.029,13.3026,4.60014,2469.97,2020-1-12T15:21:16Z
2020-01-12T13:23:47Z,42.805,6.029,13.3016,4.60010,2470.007,2020-1-12T15:24:20Z
2020-01-12T13:26:51Z,42.805,6.029,13.3009,4.60000,2469.984,2020-1-12T15:27:23Z
2020-01-12T13:29:54Z,42.805,6.029,13.3013,4.59999,2470.03,2020-1-12T15:30:26Z
2020-01-12T13:32:58Z,42.805,6.029,13.2992,4.60001,2469.97,2020-1-12T15:33:30Z
2020-01-12T13:36:01Z,42.805,6.029,13.3009,4.59983,2470.017,2020-1-12T15:36:33Z
2020-01-12T13:39:04Z,42.805,6.029,13.2990,4.59986,2469.947,2020-1-12T15:39:36Z
2020-01-12T13:42:07Z,42.805,6.029,13.2989,4.59992,2469.97,2020-1-12T15:42:40Z
2020-01-12T13:45:10Z,42.805,6.029,13.2988,4.59988,2469.97,2020-1-12T15:45:43Z
2020-01-12T13:48:14Z,42.805,6.029,13.2989,4.59976,2469.97,2020-1-12T15:48:46Z
2020-01-12T13:51:17Z,42.805,6.029,13.2989,4.59987,2469.947,2020-1-12T15:51:49Z
2020-01-12T13:54:20Z,42.805,6.029,13.2983,4.59980,2469.947,2020-1-12T15:54:52Z
2020-01-12T13:57:23Z,42.805,6.029,13.2989,4.59989,2469.97,2020-1-12T15:57:56Z
2020-01-12T14:00:27Z,42.805,6.029,13.2983,4.59989,2469.984,2020-1-12T16:00:59Z
2020-01-12T14:03:30Z,42.805,6.029,13.2998,4.59980,2469.97,2020-1-12T16:04:02Z
2020-01-12T14:06:33Z,42.805,6.029,13.2993,4.59983,2469.984,2020-1-12T16:07:05Z
2020-01-12T14:09:36Z,42.805,6.029,13.2989,4.59985,2469.993,2020-1-12T16:10:09Z
2020-01-12T14:12:40Z,42.805,6.029,13.2987,4.59985,2469.923,2020-1-12T16:13:12Z
2020-01-12T14:15:43Z,42.805,6.029,13.2981,4.59981,2469.937,2020-1-12T16:16:15Z
2020-01-12T14:18:46Z,42.805,6.029,13.2980,4.59987,2469.937,2020-1-12T16:19:18Z
2020-01-12T14:21:49Z,42.805,6.029,13.2988,4.60009,2469.947,2020-1-12T16:22:22Z
2020-01-12T14:24:53Z,42.805,6.029,13.2993,4.59983,2469.984,2020-1-12T16:25:25Z
2020-01-12T14:27:56Z,42.805,6.029,13.3003,4.59982,2469.97,2020-1-12T16:28:28Z
2020-01-12T14:30:59Z,42.805,6.029,13.2989,4.59997,2469.947,2020-1-12T16:31:31Z
2020-01-12T14:34:03Z,42.805,6.029,13.2993,4.59997,2469.96,2020-1-12T16:34:35Z
2020-01-12T14:37:06Z,42.805,6.029,13.2993,4.59987,2469.937,2020-1-12T16:37:38Z
2020-01-12T14:40:09Z,42.805,6.029,13.2994,4.59985,2469.923,2020-1-12T16:40:41Z
2020-01-12T14:43:12Z,42.805,6.029,13.2994,4.59988,2469.937,2020-1-12T16:43:45Z
2020-01-12T14:46:16Z,42.805,6.029,13.3002,4.59976,2469.914,2020-1-12T16:46:48Z
2020-01-12T14:49:19Z,42.805,6.029,13.3002,4.59988,2469.923,2020-1-12T16:49:51Z
2020-01-12T14:52:22Z,42.805,6.029,13.3004,4.59981,2469.96,2020-1-12T16:52:54Z
2020-01-12T14:55:25Z,42.805,6.029,13.2991,4.59982,2469.937,2020-1-12T16:55:57Z
2020-01-12T14:58:28Z,42.805,6.029,13.2989,4.59983,2469.984,2020-1-12T16:59:01Z
2020-01-12T15:01:32Z,42.805,6.029,13.2988,4.59979,2469.923,2020-1-12T17:02:04Z
2020-01-12T15:04:35Z,42.805,6.029,13.2982,4.59986,2469.947,2020-1-12T17:05:07Z
2020-01-12T15:07:38Z,42.805,6.029,13.2991,4.59976,2469.876,2020-1-12T17:08:11Z
2020-01-12T15:10:42Z,42.805,6.029,13.2993,4.59982,2469.923,2020-1-12T17:11:14Z